User: anonymous   Login
Location: Unspecified
(44.0970°N, 0.0000°E)
Time: 03:23:10
(UTC+00:00)
Language:

deb NAVY NAVIGATION SAT O-24 - Orbit

View from above orbital plane
View from above orbital plane
View from above satellite
View from above satellite

Ground track
Ground track

The orbit is defined by the following mean orbital elements,

1 21878U          26087.98708684 +.00000000 +00000-0 +15396-2 0 00008
2 21878  90.1686  68.6547 0148857  46.5697  15.7405 13.51778937    07
Epoch (UTC): 28 March 2026 23:41:24
Eccentricity: 0.0148857
inclination: 90.1686°
perigee height: 955 km
apogee height: 1177 km
right ascension of ascending node: 68.6547°
argument of perigee: 46.5697°
revolutions per day: 13.51778937
mean anomaly at epoch: 15.7405°

The dashed part of the orbit path shows where the satellite is in the earth's shadow,  

DLR